www.srh.weather.gov   
NOAA logo - Click to go to the NOAA homepage   NWS logo
Weather Roundup
Enter Your "City, ST" or zip code   
Current Version              Previous Version:    01  02  03  04  05  06  07  08  09  10  11  12  13  14  15  16  17  18  19  20  21  22  23  24  25  26  27  28  29  30  
   31  32  33  34  35  36  37  38  39  40  41  42  43  44  45  46  47  48  49  50  51  52  53  54  55  56  57  58  59  60  
[Printable]
809
NZUS59 KLOT 220910
HRRLOT

CHICAGO AREA WEATHER ROUNDUP
NATIONAL WEATHER SERVICE CHICAGO/ROMEOVILLE IL
400 AM CDT WED OCT 22 2014

NOTE: "FAIR" INDICATES FEW OR NO CLOUDS BELOW 12,000 FEET WITH NO
SIGNIFICANT WEATHER AND/OR OBSTRUCTIONS TO VISIBILITY.

* THESE STATIONS ARE NOT UNDER NWS QUALITY CONTROL. THEY ALSO MAY NOT
  REPORT WEATHER SUCH AS PRECIPITATION OR FOG.

ILZ005-006-012>014-019>023-221000-
NORTHEAST ILLINOIS

CITY           SKY/WX    TMP DP  RH WIND       PRES   REMARKS
OHARE          CLOUDY    46  39  76 N5        30.28R
MIDWAY         MOCLDY    48  40  73 CALM      30.29R
AURORA         CLEAR     33  29  85 CALM      30.30R
LANSING*       CLEAR     35  35  98 CALM      30.29R
JOLIET*        CLEAR     35  35  99 CALM      30.29S
WAUKEGAN       PTCLDY    36  34  92 NW6       30.29R
DUPAGE AIRPORT MOCLDY    38  35  89 NW3       30.29R
WHEELING       CLOUDY    46  40  79 N3        30.30R
KANKAKEE*      CLEAR     36  35  98 CALM      30.30R FOG
MORRIS*        CLEAR     36  36  99 N3        30.29R
LEWIS AIRPORT* CLEAR     37  36  99 CALM      30.29S
NORTHERLY IS     N/A     49  38  65 S6          N/A
$$

WIZ051-052-058>065-066-070>072-221000-
SOUTHEAST WISCONSIN

CITY           SKY/WX    TMP DP  RH WIND       PRES   REMARKS
MILWAUKEE      CLEAR     38  33  82 W5        30.31R
KENOSHA*       CLEAR     34  33  96 NW6       30.30R WCI  29
RACINE*        CLEAR     36  33  89 W5        30.31R
BURLINGTON     CLEAR     28  28 100 CALM      30.30S FOG
WAUKESHA       CLEAR     32  32 100 CALM      30.32R
WEST BEND      PTCLDY    30  28  93 CALM      30.31R
$$

INZ001>003-010>013-019-020-221000-
NORTHWEST INDIANA

CITY           SKY/WX    TMP DP  RH WIND       PRES   REMARKS
GARY*          CLEAR     34  33  96 CALM      30.30R
MICHIGAN CITY* NOT AVBL
RENSSELAER*    NOT AVBL
VALPARAISO     CLEAR     33  32  96 NE3       30.30R
$$

LMZ740>746-221000-
SOUTHERN LAKE MICHIGAN

STATION/POSITION TIME  SKY/WX   TEMP WIND        PRES    VSBY
                                AIR  DIR/SP/G
                 (UTC)          (F)  (DEG/KT/KT) (MB)    (MI)
HARRISON CRIB    0800            51   90/  4/  7   N/A
BURNHAM HARBOR   0900            49  230/  3/  7   N/A
CALUMET HARBOR   0900            44  250/  3/  5 1024.1S
BURNS HARBOR     NOT AVBL
MICHIGAN CITY    0900            40  110/  8/ 10   N/A
$$

ABBREVIATIONS USED IN REMARKS
   TC - TEMPERATURE IN CELSIUS
  WCI - WIND CHILL INDEX
   HX - HEAT INDEX
  VSB - VISIBILITY
$$



National Weather Service
Disclaimer
Last Modified: August 31, 2005
Privacy Policy